SES-18

Last updated on Thu Oct 30 2025 00:02:52 GMT+0000 (Coordinated Universal Time)

1 55970U 23038A 25302.18737807 -.00000091 00000+0 00000+0 0 9994 2 55970 0.0214 269.2520 0002726 332.9620 119.9289 1.00270139 9789
UTC large
Height (km)
Speed (km/s)
/
Latitude / Longitude
Inclination (degrees)
Orbital Period (minutes)
Azimuth
Elevation
Range (km)
Doppler Factor

Next 0 passes for location: London (51.5072 / 0.1276)

Sorry there are no passes over London.